898  
ASUS44 KHUN 220010  
RWRHUN  
 
WEATHER ROUNDUP FOR THE TENNESSEE VALLEY  
NATIONAL WEATHER SERVICE HUNTSVILLE AL  
600 PM CST WED FEB 21 2018  
 
ALZ001>004-220100-  
NORTHWEST ALABAMA  
 
CITY SKY/WX TMP DP RH WIND PRES REMARKS
 
SHOALS AIRPORT MOCLDY 65 56 72 N9 30.27R  
6HR MIN TEMP: 65; 6HR MAX TEMP: 80;  
 

 
 
ALZ005>007-016-220100-  
NORTH CENTRAL ALABAMA  
 
CITY SKY/WX TMP DP RH WIND PRES REMARKS
 
DECATUR AP FAIR 71 62 73 S5 30.24R  
6HR MIN TEMP: 71; 6HR MAX TEMP: 81;  
 
HUNTSVILLE AP CLOUDY 73 64 73 SE6 30.24R  
6HR MIN TEMP: 73; 6HR MAX TEMP: 81;  
 
MERIDIANVILLE MOCLDY 69 60 74 N7 30.26R  
REDSTONE ARSN FAIR 74 62 65 SE3 30.23S  
VINEMONT AP FAIR 74 61 64 SE6 30.28S  

 
 
ALZ008>010-220100-  
NORTHEAST ALABAMA  
 
CITY SKY/WX TMP DP RH WIND PRES REMARKS
 
FORT PAYNE MOCLDY 73 61 64 MISG 30.29R  
SCOTTSBORO AP MOCLDY 75 64 69 VRB6G14 30.28R  

 
 
TNZ076-096-097-220100-  
SOUTHEASTERN MIDDLE TENNESSEE  
 
CITY SKY/WX TMP DP RH WIND PRES REMARKS
 
TULLAHOMA CLOUDY 63 59 88 NW7 30.29R  
WINCHESTER CLOUDY 66 61 82 N8 30.29R  

 
   
..SURROUNDING SITES
 
 
 
CITY SKY/WX TMP DP RH WIND PRES REMARKS
 
ATLANTA FAIR 74 65 73 SE7 30.35S  
ANNISTON FAIR 75 63 66 SE6 30.29S  
BIRMINGHAM FAIR 77 62 59 SE10 30.28R  
CHATTANOOGA MOCLDY 76 61 59 SE3 30.29S  
CORINTH CLOUDY 54 50 87 N14 30.29S  
DALTON FAIR 72 63 73 S3 30.33R  
GADSDEN FAIR 75 64 68 SE6 30.29R  
GOLDEN TRNGL FAIR 74 68 81 CALM 30.21R  
HALEYVILLE CLOUDY 73 66 78 S8 30.26R  
JACKSON TN CLOUDY 45 45 100 NE13 30.34F  
MEMPHIS RAIN 46 44 93 NE13 30.31F FOG  
NASHVILLE CLOUDY 52 49 89 N10 30.35R  
OXFORD MS CLOUDY 54 52 94 NE10G17 30.28R  
ROME FAIR 73 65 75 SE6 30.31R  
SAVANNAH CLOUDY 52 50 93 N13 30.31R  
TUPELO HVY RAIN 59 55 87 N10 30.26R  
TUSCALOOSA FAIR 79 64 60 SE8 30.21S  

 
   
..GULF COAST WEATHER
 
 
 
CITY SKY/WX TMP DP RH WIND PRES REMARKS
 
GULFPORT CLOUDY 73 72 96 SE16 30.23R FOG  
PASCAGOULA CLOUDY 74 70 87 SE9 30.25R  
MOBILE CLOUDY 73 70 90 SE12 30.27R  
GULF SHORES CLOUDY 72 72 100 E10G16 30.27R  
PENSACOLA CLOUDY 72 69 90 SE12 30.26S FOG  
DESTIN CLOUDY 72 67 84 SE9 30.31R  
PANAMA CITY FAIR 72 68 88 SE10 30.32R  
APPALACHICOLA FAIR 71 70 96 SE7 30.32S  

 
 
 
 
CLICK HERE TO GO TO PREVIOUS BULLETINS.

The Nexlab AL Page
The Nexlab TN Page Main Text Page